Weather History for Escanaba, MI

Change the Weather History Date:

Saturday, March 3, 2012

  Actual Average Record
Temperature  
Mean Temperature 26 °F -  
Max Temperature 32 °F 31 °F 47 °F (1974)
Min Temperature 21 °F 13 °F -26 °F (1972)
Degree Days  
Heating Degree Days 38    
Moisture  
Dew Point 20 °F    
Average Humidity 71    
Maximum Humidity 80    
Minimum Humidity 55    
Precipitation  
Precipitation 0.03 in - - ()
Sea Level Pressure  
Sea Level Pressure 29.46 in    
Wind  
Wind Speed 11 mph (NW)    
Max Wind Speed 16 mph    
Max Gust Speed 25 mph    
Visibility 5 miles    
Events      
Averages and records for this station are not official NWS values.
T = Trace of Precipitation, MM = Missing Value Source: NWS Daily Summary

Daily Weather History Graph

Daily Weather History Graph

Search for Another Location

Airport:

Trip Planner

Search our weather history database for the weather conditions in past years. The results will help you decide how hot, cold, wet, or windy it might be!

Date:

Astronomy

Mar. 03, 2012 Rise Set
Actual Time 7:22 AM EST 6:38 PM EST
Civil Twilight 6:52 AM EST 7:08 PM EST
Nautical Twilight 6:18 AM EST 7:42 PM EST
Astronomical Twilight 5:43 AM EST 8:17 PM EST
Moon 1:35 PM EST (3/3) 4:12 AM EST (3/3)
Length of Visible Light 12h 15m
Length of Day
11h 16m
Waxing Gibbous, 75% of the Moon is Illuminated
Mar 3
Waxing Gibbous
Mar 8
Full
Mar 14
Last Quarter
Mar 22
New
Mar 30
First Quarter

Hourly Weather History & Observations

Time (EST) Temp. Windchill Dew Point Humidity Pressure Visibility Wind Dir Wind Speed Gust Speed Precip Events Conditions
12:15 AM 32.0 °F 25.6 °F 26.6 °F 80% 29.35 in 1.8 mi NW 6.9 mph - N/A   Overcast
12:35 AM 32.0 °F 24.8 °F 26.6 °F 80% 29.34 in 1.8 mi NW 8.1 mph - 0.01 in   Overcast
12:55 AM 32.0 °F 24.2 °F 26.6 °F 80% 29.33 in 2.0 mi NW 9.2 mph - 0.01 in   Overcast
1:15 AM 32.0 °F 23.6 °F 26.6 °F 80% 29.32 in 2.0 mi NW 10.4 mph - 0.01 in   Overcast
1:35 AM 32.0 °F 22.5 °F 26.6 °F 80% 29.31 in 2.5 mi NW 12.7 mph - 0.01 in   Overcast
1:55 AM 32.0 °F 23.0 °F 26.6 °F 80% 29.31 in 2.0 mi WNW 11.5 mph 17.3 mph 0.01 in   Overcast
2:15 AM 32.0 °F 23.0 °F 26.6 °F 80% 29.31 in 2.0 mi NW 11.5 mph - N/A   Overcast
2:35 AM 32.0 °F 23.0 °F 26.6 °F 80% 29.30 in 2.0 mi WNW 11.5 mph - N/A   Overcast
2:55 AM 32.0 °F 23.0 °F 26.6 °F 80% 29.30 in 1.8 mi WNW 11.5 mph - 0.01 in   Overcast
3:15 AM 32.0 °F 22.5 °F 26.6 °F 80% 29.30 in 2.0 mi WNW 12.7 mph 17.3 mph N/A   Overcast
3:35 AM 32.0 °F 23.0 °F 26.6 °F 80% 29.30 in 2.5 mi WNW 11.5 mph 16.1 mph N/A   Overcast
3:55 AM 32.0 °F 23.6 °F 26.6 °F 80% 29.30 in 2.0 mi NW 10.4 mph 16.1 mph N/A   Overcast
4:15 AM 32.0 °F 23.0 °F 26.6 °F 80% 29.29 in 2.0 mi WNW 11.5 mph 17.3 mph N/A   Overcast
4:35 AM 32.0 °F 24.2 °F 26.6 °F 80% 29.30 in 2.5 mi WNW 9.2 mph - N/A   Overcast
4:55 AM 32.0 °F 23.6 °F 26.6 °F 80% 29.30 in 3.0 mi WNW 10.4 mph - N/A   Overcast
5:15 AM 32.0 °F 23.6 °F 26.6 °F 80% 29.30 in 3.0 mi WNW 10.4 mph - N/A   Overcast
5:35 AM 32.0 °F 24.2 °F 26.6 °F 80% 29.31 in 4.0 mi WNW 9.2 mph - N/A   Overcast
5:55 AM 32.0 °F 24.8 °F 26.6 °F 80% 29.32 in 2.5 mi WNW 8.1 mph - N/A   Overcast
6:15 AM 32.0 °F 25.6 °F 26.6 °F 80% 29.33 in 3.0 mi NW 6.9 mph - N/A   Overcast
6:35 AM 32.0 °F 24.8 °F 26.6 °F 80% 29.33 in 2.5 mi WNW 8.1 mph - N/A   Overcast
6:55 AM 32.0 °F 24.2 °F 24.8 °F 75% 29.34 in 3.0 mi NW 9.2 mph - N/A   Overcast
7:15 AM 30.2 °F 22.6 °F 24.8 °F 80% 29.35 in 2.5 mi NW 8.1 mph - N/A   Overcast
7:35 AM 30.2 °F 20.8 °F 24.8 °F 80% 29.36 in 1.8 mi NNW 11.5 mph 19.6 mph N/A   Overcast
7:55 AM 30.2 °F 20.8 °F 23.0 °F 75% 29.37 in 2.0 mi NNW 11.5 mph 18.4 mph N/A   Overcast
8:15 AM 30.2 °F 21.3 °F 21.2 °F 69% 29.39 in 2.0 mi NNW 10.4 mph 16.1 mph N/A   Overcast
8:35 AM 30.2 °F 20.2 °F 21.2 °F 69% 29.39 in 3.0 mi NNW 12.7 mph - N/A   Mostly Cloudy
8:55 AM 28.4 °F 17.5 °F 19.4 °F 69% 29.40 in 3.0 mi NNW 13.8 mph 19.6 mph N/A   Overcast
9:15 AM 28.4 °F 19.1 °F 19.4 °F 69% 29.42 in 3.0 mi NNW 10.4 mph 20.7 mph N/A   Overcast
9:35 AM 28.4 °F 16.6 °F 19.4 °F 69% 29.43 in 5.0 mi NNW 16.1 mph 25.3 mph N/A   Overcast
9:55 AM 28.4 °F 17.0 °F 19.4 °F 69% 29.44 in 3.0 mi NNW 15.0 mph 19.6 mph N/A   Overcast
10:15 AM 26.6 °F 14.3 °F 17.6 °F 69% 29.45 in 9.0 mi NNW 16.1 mph 21.9 mph N/A   Overcast
10:35 AM 26.6 °F 16.8 °F 17.6 °F 69% 29.46 in 5.0 mi NNW 10.4 mph 19.6 mph N/A   Overcast
10:55 AM 26.6 °F 16.8 °F 17.6 °F 69% 29.47 in 4.0 mi NW 10.4 mph 20.7 mph N/A   Overcast
11:15 AM 26.6 °F 15.2 °F 17.6 °F 69% 29.48 in 5.0 mi NW 13.8 mph 21.9 mph N/A   Mostly Cloudy
11:35 AM 26.6 °F 15.7 °F 17.6 °F 69% 29.48 in 8.0 mi NNW 12.7 mph 20.7 mph N/A   Overcast
11:55 AM 26.6 °F 16.2 °F 17.6 °F 69% 29.50 in 3.0 mi NNW 11.5 mph - N/A   Overcast
12:15 PM 26.6 °F 16.2 °F 17.6 °F 69% 29.51 in 7.0 mi NNW 11.5 mph 23.0 mph N/A   Mostly Cloudy
12:35 PM 26.6 °F 15.7 °F 15.8 °F 64% 29.52 in 10.0 mi NNW 12.7 mph 20.7 mph N/A   Overcast
12:55 PM 26.6 °F 16.2 °F 17.6 °F 69% 29.53 in 10.0 mi NNW 11.5 mph 20.7 mph N/A   Overcast
1:15 PM 26.6 °F 14.7 °F 15.8 °F 64% 29.53 in 8.0 mi NNW 15.0 mph 21.9 mph N/A   Overcast
1:35 PM 26.6 °F 16.2 °F 17.6 °F 69% 29.54 in 10.0 mi NNW 11.5 mph 23.0 mph N/A   Overcast
1:55 PM 26.6 °F 14.7 °F 15.8 °F 64% 29.55 in 9.0 mi NNW 15.0 mph 21.9 mph N/A   Mostly Cloudy
2:15 PM 26.6 °F 15.2 °F 15.8 °F 64% 29.56 in 10.0 mi NNW 13.8 mph 21.9 mph N/A   Overcast
2:35 PM 26.6 °F 15.7 °F 15.8 °F 64% 29.56 in 10.0 mi North 12.7 mph 19.6 mph N/A   Mostly Cloudy
2:55 PM 26.6 °F 14.7 °F 14.0 °F 59% 29.57 in 10.0 mi NNW 15.0 mph 25.3 mph N/A   Mostly Cloudy
3:15 PM 26.6 °F 16.2 °F 14.0 °F 59% 29.59 in 10.0 mi NNW 11.5 mph 20.7 mph N/A   Overcast
3:35 PM 26.6 °F 15.7 °F 14.0 °F 59% 29.60 in 10.0 mi NNW 12.7 mph 18.4 mph N/A   Overcast
3:55 PM 26.6 °F 16.2 °F 12.2 °F 55% 29.61 in 10.0 mi NNW 11.5 mph 19.6 mph N/A   Overcast
4:15 PM 24.8 °F 15.3 °F 14.0 °F 64% 29.63 in 10.0 mi North 9.2 mph 18.4 mph N/A   Overcast
4:35 PM 24.8 °F 13.4 °F 12.2 °F 59% 29.64 in 10.0 mi NNW 12.7 mph - N/A   Overcast
4:55 PM 24.8 °F 11.9 °F 12.2 °F 59% 29.66 in 10.0 mi NNW 16.1 mph 25.3 mph N/A   Overcast
5:15 PM 24.8 °F 12.9 °F 12.2 °F 59% 29.67 in 10.0 mi NNW 13.8 mph 20.7 mph N/A   Overcast
5:35 PM 24.8 °F 14.0 °F 12.2 °F 59% 29.68 in 3.0 mi NNW 11.5 mph 17.3 mph N/A   Overcast
5:55 PM 23.0 °F 11.1 °F 12.2 °F 63% 29.69 in 3.0 mi NNW 12.7 mph 18.4 mph N/A   Overcast
6:15 PM 23.0 °F 13.1 °F 12.2 °F 63% 29.71 in 3.0 mi NNW 9.2 mph 18.4 mph N/A   Overcast
6:35 PM 21.2 °F 10.9 °F 12.2 °F 68% 29.72 in 3.0 mi NNW 9.2 mph - N/A   Overcast
6:55 PM 21.2 °F 11.7 °F 12.2 °F 68% 29.73 in 4.0 mi NNW 8.1 mph - N/A   Overcast
7:15 PM 21.2 °F 10.9 °F 12.2 °F 68% 29.74 in 3.0 mi NNW 9.2 mph 17.3 mph N/A   Overcast
7:35 PM 21.2 °F 10.1 °F 10.4 °F 63% 29.74 in 8.0 mi NNW 10.4 mph - N/A   Overcast
7:55 PM 21.2 °F 11.7 °F 10.4 °F 63% 29.75 in 7.0 mi NNW 8.1 mph - N/A   Overcast
8:15 PM 19.4 °F 8.6 °F 10.4 °F 68% 29.75 in 9.0 mi NNW 9.2 mph - N/A   Overcast
8:35 PM 19.4 °F 8.6 °F 10.4 °F 68% 29.76 in 10.0 mi NW 9.2 mph - N/A   Overcast
8:55 PM 19.4 °F 9.5 °F 10.4 °F 68% 29.77 in 10.0 mi NW 8.1 mph - N/A   Overcast
9:15 PM 19.4 °F 9.5 °F 10.4 °F 68% 29.77 in 10.0 mi NW 8.1 mph - N/A   Overcast
9:35 PM 19.4 °F 9.5 °F 10.4 °F 68% 29.77 in 10.0 mi WNW 8.1 mph - N/A   Overcast
9:55 PM 19.4 °F 9.5 °F 10.4 °F 68% 29.78 in 10.0 mi WNW 8.1 mph - N/A   Overcast
10:15 PM 19.4 °F 9.5 °F 10.4 °F 68% 29.78 in 10.0 mi NW 8.1 mph - N/A   Overcast
10:35 PM 19.4 °F 9.5 °F 10.4 °F 68% 29.78 in 9.0 mi WNW 8.1 mph - N/A   Overcast
10:55 PM 19.4 °F 9.5 °F 10.4 °F 68% 29.78 in 5.0 mi NW 8.1 mph - N/A   Overcast
11:15 PM 17.6 °F 8.2 °F 10.4 °F 73% 29.78 in 5.0 mi WNW 6.9 mph - N/A   Overcast
11:35 PM 17.6 °F 8.2 °F 10.4 °F 73% 29.78 in 10.0 mi NW 6.9 mph - N/A   Overcast
11:55 PM 17.6 °F 8.2 °F 10.4 °F 73% 29.79 in 10.0 mi WNW 6.9 mph - N/A   Overcast